Weather History for St. Petersburg, FL

Change the Weather History Date:

Sunday, June 29, 2014

  Actual Average Record
Temperature  
Mean Temperature 88 °F -  
Max Temperature 95 °F 90 °F 95 °F (1952)
Min Temperature 84 °F 76 °F 69 °F (1962)
Cooling Degree Days 24    
Growing Degree Days 38 (Base 50)    
Moisture  
Dew Point 75 °F    
Average Humidity 66    
Maximum Humidity 80    
Minimum Humidity 44    
Precipitation  
Precipitation 0.00 in - - ()
Sea Level Pressure  
Sea Level Pressure 30.09 in    
Wind  
Wind Speed 6 mph (North)    
Max Wind Speed 14 mph    
Max Gust Speed 24 mph    
Visibility 10 miles    
Events Thunderstorm    
Averages and records for this station are not official NWS values.
T = Trace of Precipitation, MM = Missing Value Source: NWS Daily Summary

Daily Weather History Graph

Daily Weather History Graph

Search for Another Location

Airport:

Trip Planner

Search our weather history database for the weather conditions in past years. The results will help you decide how hot, cold, wet, or windy it might be!

Date:

Astronomy

Jun. 29, 2014 Rise Set
Actual Time 6:37 AM EDT 8:30 PM EDT
Civil Twilight 6:10 AM EDT 8:56 PM EDT
Nautical Twilight 5:38 AM EDT 9:29 PM EDT
Astronomical Twilight 5:04 AM EDT 10:03 PM EDT
Moon 8:41 AM EDT (6/29) 10:05 PM EDT (6/29)
Length of Visible Light 14h 46m
Length of Day
13h 52m
Waxing Crescent, 5% of the Moon is Illuminated
Jun 29
Waxing Crescent
Jul 5
First Quarter
Jul 12
Full
Jul 18
Last Quarter
Jul 26
New

Hourly Weather History & Observations

Time (EDT) Temp. Heat Index Dew Point Humidity Pressure Visibility Wind Dir Wind Speed Gust Speed Precip Events Conditions
12:53 AM 86.0 °F 98.3 °F 78.1 °F 77% 30.14 in 10.0 mi North 4.6 mph - N/A   Clear
1:53 AM 84.9 °F 96.6 °F 78.1 °F 80% 30.12 in 10.0 mi North 4.6 mph - N/A   Clear
2:53 AM 84.9 °F 95.3 °F 77.0 °F 77% 30.10 in 10.0 mi Calm Calm - N/A   Clear
3:53 AM 84.9 °F 95.3 °F 77.0 °F 77% 30.10 in 10.0 mi North 4.6 mph - N/A   Clear
4:53 AM 84.0 °F 93.7 °F 77.0 °F 79% 30.09 in 10.0 mi North 4.6 mph - N/A   Clear
5:53 AM 84.0 °F 93.7 °F 77.0 °F 79% 30.09 in 10.0 mi North 4.6 mph - N/A   Clear
6:53 AM 84.0 °F 93.7 °F 77.0 °F 79% 30.11 in 10.0 mi Calm Calm - N/A   Clear
7:53 AM 84.9 °F 95.3 °F 77.0 °F 77% 30.12 in 10.0 mi North 4.6 mph - N/A   Clear
8:53 AM 87.1 °F 98.8 °F 77.0 °F 72% 30.13 in 10.0 mi Variable 6.9 mph - N/A   Clear
9:53 AM 89.1 °F 103.2 °F 78.1 °F 70% 30.13 in 10.0 mi NE 9.2 mph - N/A   Partly Cloudy
10:53 AM 90.0 °F 101.3 °F 75.9 °F 63% 30.14 in 10.0 mi NE 10.4 mph - N/A   Partly Cloudy
11:53 AM 91.0 °F 101.6 °F 75.0 °F 59% 30.13 in 10.0 mi NNE 9.2 mph - N/A   Scattered Clouds
12:53 PM 91.0 °F 100.4 °F 73.9 °F 57% 30.12 in 10.0 mi North 5.8 mph - N/A   Overcast
1:53 PM 93.0 °F 97.9 °F 69.1 °F 45% 30.10 in 10.0 mi NNW 9.2 mph - N/A   Partly Cloudy
2:53 PM 93.0 °F 99.0 °F 70.0 °F 47% 30.08 in 10.0 mi North 11.5 mph - N/A   Partly Cloudy
3:53 PM 93.9 °F 99.1 °F 69.1 °F 44% 30.06 in 10.0 mi North 9.2 mph 24.2 mph N/A   Clear
4:53 PM 93.9 °F 100.8 °F 71.1 °F 47% 30.04 in 10.0 mi NNW 11.5 mph - N/A   Clear
5:53 PM 91.9 °F 98.4 °F 71.1 °F 50% 30.03 in 10.0 mi North 12.7 mph 20.7 mph N/A   Clear
6:53 PM 90.0 °F 97.9 °F 73.0 °F 57% 30.02 in 10.0 mi NNW 11.5 mph - N/A   Clear
7:53 PM 90.0 °F 99.0 °F 73.9 °F 59% 30.03 in 10.0 mi North 13.8 mph - N/A   Clear
8:53 PM 88.0 °F 97.5 °F 75.0 °F 65% 30.04 in 10.0 mi NNW 9.2 mph - N/A   Clear
9:53 PM 84.9 °F 92.1 °F 73.9 °F 69% 30.06 in 10.0 mi East 11.5 mph - N/A   Partly Cloudy
10:53 PM 84.9 °F 93.3 °F 75.0 °F 72% 30.07 in 10.0 mi East 8.1 mph - N/A   Mostly Cloudy
11:23 PM 84.9 °F 93.3 °F 75.0 °F 72% 30.06 in 10.0 mi ENE 8.1 mph - 0.00 in Thunderstorm Scattered Clouds
11:53 PM 84.0 °F 91.2 °F 73.9 °F 72% 30.06 in 10.0 mi East 5.8 mph - 0.00 in Thunderstorm Mostly Cloudy